Wind_Speed
31 29 25 20 19 19 19 20 14 9 10 14 15 14 20 21 23 24 27 29 32 36 37 35 33 33 32 32 32 32 32 32 36 32 30 28 28 31 31 33 36 38 38
29 26 23 20 19 17 17 15 14 13 14 18 20 21 20 22 24 27 31 33 32 34 34 33 32 32 32 30 30 30 30 29 32 35 29 30 31 32 33 33 32 34 36
27 24 22 18 17 16 15 14 15 14 13 15 17 19 21 25 27 30 30 30 31 33 33 33 33 32 30 28 27 27 26 26 28 32 32 32 33 35 35 34 34 33 34
26 22 19 16 15 14 13 13 14 14 15 17 20 23 25 25 27 29 30 32 33 34 34 34 34 34 28 25 25 25 25 26 27 29 31 32 34 32 33 35 33 33 34
24 21 18 16 15 15 14 14 14 16 18 21 24 25 26 25 28 29 31 32 33 33 33 32 33 29 27 23 24 24 25 24 25 26 27 28 29 32 34 34 36 34 29
22 19 17 16 16 15 13 14 14 16 18 21 23 24 23 24 26 30 32 32 32 33 32 30 26 27 21 21 21 23 23 24 22 25 25 30 31 36 37 37 37 38 36
21 18 16 16 14 13 12 12 16 20 20 22 24 24 22 24 27 30 31 31 31 31 27 24 22 24 19 20 19 19 20 24 25 28 29 31 32 35 36 35 36 37 37
20 18 17 14 12 11 13 16 19 20 20 23 25 26 24 25 27 30 30 28 30 26 25 23 21 19 19 18 18 19 22 25 26 28 28 28 31 33 34 39 42 42 43
19 17 15 14 13 14 19 22 22 20 22 24 22 25 25 24 28 29 29 27 27 25 23 21 18 17 18 21 19 21 25 25 26 28 31 32 33 34 36 39 42 47 49
18 13 11 10 16 20 20 19 20 19 19 21 21 23 25 24 25 26 28 25 24 21 20 16 15 15 15 21 24 26 28 30 31 32 35 36 34 36 39 43 47 51 51
15 8 8 14 18 20 18 18 17 16 17 19 22 22 20 23 23 22 24 21 19 16 14 13 15 15 18 22 25 29 31 31 35 37 37 38 36 37 40 43 47 53 43
9 11 12 14 15 15 14 13 13 14 17 18 19 21 18 19 21 20 19 16 14 12 12 12 15 18 21 22 25 30 35 35 35 33 32 30 32 37 39 43 48 39 27
10 10 11 10 10 8 10 10 11 13 13 16 18 19 19 20 20 19 17 14 15 14 12 15 16 19 22 25 30 31 28 26 28 28 30 32 36 37 39 42 30 19 12
7 5 5 6 9 10 9 9 10 12 14 14 16 16 18 18 19 19 18 16 15 15 14 15 17 20 21 19 20 20 21 23 26 28 30 32 36 40 38 30 24 13 15
2 3 5 5 6 8 9 9 10 11 12 14 15 16 16 17 16 17 16 15 14 13 13 13 13 13 14 15 17 18 20 22 23 25 28 35 42 32 26 24 23 21 22
2 5 6 7 8 6 7 10 10 12 13 13 15 14 14 14 16 16 16 16 15 14 14 14 14 15 15 16 17 19 21 23 25 24 29 36 36 26 24 23 24 22 26
2 2 3 4 5 8 8 7 9 11 11 11 13 13 14 15 14 14 15 15 15 15 14 15 16 17 18 18 19 21 23 25 27 25 25 36 32 24 25 23 23 20 21
1 2 2 3 4 5 7 8 9 9 8 9 11 13 14 14 14 15 15 16 15 16 16 17 17 18 19 20 21 21 22 23 25 27 27 31 30 26 21 25 23 19 17
1 1 2 3 4 5 6 7 8 9 10 11 13 13 13 13 14 15 15 16 16 17 17 18 19 19 20 21 21 22 23 25 27 27 29 27 33 26 20 25 21 14 15
3 2 3 3 4 5 6 7 8 9 9 10 11 12 13 13 13 14 14 15 16 17 18 18 19 19 20 20 22 22 23 23 25 27 28 28 26 31 22 22 19 12 11
2 2 3 3 4 5 5 7 8 8 9 10 10 11 12 13 13 14 15 16 17 18 19 20 21 21 22 22 22 23 24 24 25 26 28 27 30 24 28 20 17 12 12
3 3 3 3 3 4 5 7 8 9 10 10 11 11 12 14 15 16 16 17 19 19 20 21 21 22 23 23 23 24 24 25 24 24 26 27 27 28 23 28 17 16 9
3 3 3 2 3 4 6 7 8 9 10 11 12 13 14 15 16 17 18 18 19 19 20 21 22 22 23 24 25 25 25 25 27 27 26 26 27 25 26 24 27 10 11
3 3 3 4 5 6 7 8 8 9 10 12 13 14 15 16 17 17 17 18 18 19 20 21 22 23 23 24 25 25 26 26 27 28 27 26 26 26 26 24 22 26 16
2 3 4 5 6 7 7 8 9 11 12 13 14 16 17 17 17 18 18 19 20 21 22 22 23 23 24 24 25 25 25 25 26 27 27 26 25 25 25 25 24 20 24
2 3 4 5 6 7 8 9 10 12 13 15 16 16 16 17 18 19 20 21 21 22 23 23 24 24 24 24 24 25 24 24 24 24 26 26 24 22 23 24 23 22 20
Wind_Direction
220 218 224 233 243 252 267 276 285 285 276 242 242 239 255 270 275 276 282 287 292 298 297 297 298 297 300 301 298 297 296 296 297 300 306 308 306 302 300 299 300 299 302
212 211 221 229 245 255 264 270 271 260 249 246 254 260 266 272 282 288 289 294 297 295 296 297 300 301 300 300 300 300 299 299 301 306 312 310 310 308 309 309 306 305 308
204 211 220 236 246 254 258 256 252 250 251 254 261 270 278 281 287 293 297 297 298 298 298 299 302 302 304 303 302 299 298 299 303 308 315 316 315 314 313 314 316 308 308
201 210 223 231 240 242 239 239 246 254 265 276 281 279 286 299 297 296 295 294 293 292 294 297 300 301 305 305 301 300 301 305 310 314 319 322 320 320 321 319 315 312 311
202 211 217 225 235 233 239 249 260 272 281 285 288 293 293 296 292 292 292 292 294 294 293 294 297 299 302 300 298 298 302 307 313 320 322 325 329 328 329 330 329 326 321
200 206 214 224 226 236 247 259 276 284 287 288 288 291 296 298 297 298 297 298 297 294 293 296 299 288 295 291 294 301 306 308 312 315 326 333 337 333 335 332 327 327 328
197 203 212 218 232 249 262 275 285 290 290 289 290 295 301 302 302 301 303 301 298 297 300 295 287 286 287 288 292 297 301 305 310 315 319 325 330 330 331 330 330 330 328
195 205 216 226 238 255 281 293 296 295 295 295 299 305 311 312 310 310 306 302 301 301 296 295 291 285 285 288 289 292 294 299 306 311 315 318 317 321 322 327 327 326 324
199 206 209 221 252 278 283 290 291 294 297 299 309 311 316 319 315 312 305 302 303 297 298 298 291 281 279 280 296 298 293 292 301 309 312 310 313 315 315 321 322 323 323
203 209 235 276 273 281 286 286 291 297 301 307 309 311 310 317 313 315 311 304 302 301 300 295 289 289 298 298 295 301 307 307 306 310 310 307 309 310 317 318 320 321 322
241 232 251 263 271 276 286 292 298 302 305 306 311 315 311 316 317 319 321 311 305 302 297 293 291 296 296 295 299 303 307 311 311 312 311 309 307 306 315 315 317 317 318
224 263 267 270 276 285 291 297 297 305 312 312 316 323 322 323 321 320 329 328 316 315 306 306 299 293 296 302 306 308 307 313 316 320 319 317 312 312 315 317 319 320 318
245 257 272 280 287 295 309 315 317 320 327 330 335 339 340 342 343 340 333 336 331 311 301 302 296 294 301 304 306 310 316 319 323 325 327 324 322 321 320 324 328 337 336
251 256 285 304 319 328 333 327 330 332 332 340 344 347 349 351 352 353 352 346 342 340 329 311 299 301 307 318 330 334 335 338 339 338 335 335 334 333 333 336 341 329 316
237 302 325 327 326 325 329 334 337 343 350 354 356 359 0 359 358 2 4 4 359 352 347 346 344 339 340 342 345 347 348 347 345 346 346 348 349 355 354 356 350 346 341
295 339 334 336 340 11 359 351 358 1 2 1 359 359 1 2 4 2 4 7 5 2 2 0 358 355 355 357 358 356 354 353 353 356 351 353 352 2 353 353 353 351 341
273 311 334 348 360 359 7 21 8 4 1 360 359 357 5 5 7 7 9 11 8 7 5 5 6 5 3 4 4 2 0 358 357 354 353 356 1 360 1 354 356 356 6
342 8 0 9 18 18 21 11 3 4 5 8 9 10 14 11 10 13 11 11 7 4 3 4 4 4 5 6 5 3 359 357 359 358 358 0 5 358 356 4 4 0 7
83 90 73 54 33 26 18 10 5 5 8 13 16 14 9 6 7 6 5 3 3 3 2 2 3 4 4 5 6 4 1 1 1 360 2 358 10 2 349 355 357 0 4
122 101 70 44 34 26 13 10 8 7 5 7 6 1 358 358 357 357 358 358 357 357 355 353 353 353 355 358 357 1 2 1 2 1 3 1 359 3 3 349 354 9 5
117 82 57 37 32 21 10 6 0 358 358 1 3 359 358 357 359 359 358 357 354 353 352 349 348 348 347 349 350 351 354 358 359 2 2 2 6 356 17 12 17 358 360
104 81 58 38 19 7 6 0 354 354 356 357 356 356 354 354 355 353 352 350 349 348 348 347 346 346 346 348 348 350 350 351 353 356 0 2 4 360 6 15 3 356 360
99 88 68 35 12 2 355 356 350 349 349 350 350 350 350 348 347 345 344 343 343 342 342 341 342 341 341 343 344 344 345 346 349 353 355 357 360 2 7 6 12 346 341
96 74 42 8 358 354 349 348 348 349 348 348 348 345 342 341 340 340 341 342 342 342 341 340 340 339 340 340 340 341 342 343 343 344 348 352 353 355 2 4 357 7 351
69 38 8 353 348 348 347 348 350 347 344 341 340 338 337 338 339 340 341 341 340 340 339 338 337 337 338 338 337 337 338 338 337 336 339 344 349 348 353 357 360 357 358
34 3 351 349 349 347 348 348 346 341 338 336 336 335 336 337 337 337 338 337 336 337 337 336 336 335 338 335 335 334 335 335 334 332 331 336 341 343 343 351 353 355 351
Height
3082 3085 3088 3091 3093 3096 3097 3098 3097 3097 3096 3097 3098 3099 3099 3099 3099 3099 3098 3095 3093 3090 3087 3084 3082 3079 3075 3072 3068 3064 3061 3056 3050 3050 3047 3044 3040 3035 3033 3027 3021 3014 3009
3077 3082 3085 3087 3090 3092 3093 3093 3093 3094 3095 3096 3096 3096 3095 3094 3093 3092 3090 3088 3084 3082 3079 3076 3073 3070 3067 3065 3061 3057 3053 3049 3044 3039 3040 3036 3033 3027 3021 3017 3012 3006 3001
3074 3079 3081 3083 3087 3089 3089 3090 3091 3092 3092 3093 3092 3091 3090 3088 3088 3084 3083 3079 3077 3075 3071 3068 3064 3061 3058 3056 3053 3050 3046 3043 3040 3035 3032 3028 3023 3018 3012 3007 3002 2998 2995
3070 3075 3078 3080 3083 3085 3086 3088 3088 3089 3089 3088 3087 3084 3083 3083 3081 3077 3075 3073 3071 3067 3063 3059 3055 3052 3051 3049 3046 3044 3040 3037 3034 3030 3025 3020 3014 3010 3004 2998 2995 2990 2985
3068 3072 3075 3078 3079 3082 3083 3085 3086 3086 3085 3084 3082 3080 3078 3078 3074 3071 3069 3066 3062 3058 3055 3052 3048 3044 3045 3043 3039 3038 3035 3032 3028 3025 3020 3015 3009 3003 2998 2991 2984 2981 2979
3066 3070 3072 3075 3077 3080 3080 3081 3082 3082 3080 3079 3077 3076 3075 3072 3068 3064 3060 3057 3053 3049 3045 3044 3043 3038 3039 3038 3034 3032 3030 3026 3024 3019 3015 3009 3004 2997 2992 2985 2979 2973 2968
3065 3068 3070 3073 3075 3077 3078 3079 3079 3077 3075 3073 3070 3070 3069 3065 3060 3056 3052 3048 3043 3041 3039 3037 3036 3033 3033 3032 3030 3029 3027 3022 3018 3014 3010 3004 2999 2993 2987 2981 2975 2968 2964
3063 3066 3069 3071 3072 3076 3076 3075 3074 3072 3069 3067 3064 3062 3061 3057 3053 3048 3044 3040 3036 3035 3032 3032 3030 3029 3028 3027 3026 3025 3023 3019 3015 3010 3005 3001 2994 2989 2982 2975 2967 2962 2957
3062 3064 3067 3069 3070 3073 3072 3071 3069 3067 3064 3061 3060 3056 3054 3051 3047 3042 3038 3035 3031 3028 3027 3026 3025 3025 3024 3022 3021 3020 3017 3014 3010 3006 3001 2995 2990 2984 2976 2970 2962 2953 2946
3060 3063 3065 3068 3069 3069 3068 3066 3064 3062 3059 3057 3056 3053 3049 3047 3042 3039 3033 3029 3027 3024 3022 3022 3021 3021 3020 3019 3018 3014 3011 3008 3004 3000 2995 2989 2983 2977 2970 2961 2951 2943 2936
3060 3063 3064 3065 3066 3065 3063 3061 3060 3058 3056 3054 3051 3049 3045 3041 3038 3033 3029 3025 3023 3021 3019 3019 3019 3018 3017 3015 3012 3009 3004 3000 2996 2990 2984 2977 2973 2968 2963 2954 2945 2933 2925
3060 3062 3062 3062 3062 3060 3059 3058 3057 3054 3052 3050 3047 3044 3041 3038 3034 3029 3025 3021 3019 3018 3017 3017 3015 3014 3013 3011 3007 3004 2999 2994 2989 2983 2977 2971 2966 2960 2954 2945 2935 2926 2918
3058 3059 3059 3058 3057 3057 3055 3054 3053 3051 3049 3046 3043 3039 3036 3033 3029 3025 3022 3019 3018 3016 3016 3014 3012 3011 3009 3006 3002 2998 2993 2989 2983 2978 2971 2965 2959 2952 2944 2937 2928 2922 2919
3056 3056 3056 3055 3053 3052 3053 3051 3050 3048 3046 3043 3040 3037 3034 3031 3027 3023 3021 3018 3016 3014 3013 3011 3009 3007 3004 3001 2997 2993 2989 2984 2978 2973 2967 2961 2953 2944 2935 2928 2924 2921 2919
3053 3053 3053 3053 3053 3051 3050 3049 3047 3045 3043 3041 3038 3035 3032 3030 3027 3024 3022 3019 3016 3014 3012 3009 3007 3004 3001 2999 2995 2991 2987 2982 2978 2972 2965 2957 2948 2939 2933 2928 2923 2918 2914
3052 3051 3051 3050 3049 3049 3047 3046 3045 3043 3041 3039 3038 3035 3033 3030 3027 3025 3022 3019 3017 3014 3012 3009 3006 3004 3001 2998 2994 2990 2985 2981 2975 2970 2964 2956 2947 2940 2935 2929 2924 2918 2914
3051 3051 3050 3049 3048 3047 3046 3046 3044 3042 3041 3040 3038 3035 3032 3030 3028 3026 3023 3020 3018 3015 3012 3009 3006 3003 3000 2997 2993 2989 2984 2979 2974 2968 2963 2955 2948 2940 2935 2930 2924 2919 2916
3049 3049 3049 3049 3048 3047 3046 3045 3044 3043 3042 3041 3038 3035 3033 3031 3029 3026 3024 3021 3019 3016 3012 3009 3006 3003 3000 2996 2993 2989 2984 2980 2974 2967 2962 2956 2948 2941 2936 2931 2924 2920 2918
3048 3049 3049 3048 3048 3047 3046 3046 3044 3043 3041 3040 3037 3035 3034 3032 3030 3027 3024 3021 3018 3015 3012 3009 3006 3003 2999 2996 2993 2989 2984 2978 2972 2967 2961 2956 2950 2942 2936 2932 2927 2923 2920
3048 3049 3048 3049 3047 3047 3047 3046 3044 3043 3042 3040 3038 3036 3034 3032 3029 3027 3024 3021 3018 3015 3012 3009 3005 3002 2999 2996 2992 2988 2984 2979 2974 2968 2962 2956 2951 2945 2936 2932 2928 2926 2923
3049 3048 3048 3048 3047 3047 3047 3046 3045 3043 3042 3040 3038 3036 3034 3031 3029 3026 3023 3020 3017 3014 3011 3008 3004 3001 2997 2994 2991 2987 2983 2978 2973 2968 2963 2957 2951 2946 2939 2935 2930 2928 2924
3048 3048 3048 3048 3048 3047 3046 3045 3044 3043 3041 3039 3037 3035 3033 3031 3028 3025 3022 3019 3016 3013 3010 3006 3002 2999 2995 2992 2988 2984 2980 2976 2972 2968 2964 2958 2952 2947 2940 2936 2932 2929 2926
3048 3048 3048 3048 3048 3047 3046 3045 3043 3042 3040 3038 3036 3034 3032 3029 3026 3024 3021 3018 3015 3012 3008 3005 3001 2997 2994 2990 2986 2982 2978 2974 2970 2966 2962 2958 2953 2949 2942 2937 2934 2929 2927
3048 3048 3048 3048 3047 3046 3045 3044 3042 3041 3039 3037 3035 3033 3030 3028 3025 3023 3020 3016 3013 3010 3006 3003 2999 2995 2992 2988 2984 2980 2976 2973 2968 2964 2961 2957 2953 2947 2944 2940 2935 2931 2927
3048 3048 3047 3047 3046 3045 3044 3042 3041 3039 3037 3036 3033 3031 3028 3026 3023 3020 3017 3014 3010 3007 3004 3000 2997 2993 2990 2986 2982 2978 2975 2971 2967 2963 2959 2956 2953 2948 2944 2939 2936 2931 2928
3047 3047 3047 3046 3045 3044 3042 3041 3040 3038 3036 3034 3031 3029 3026 3023 3021 3017 3014 3011 3007 3004 3001 2997 2994 2990 2987 2983 2980 2976 2973 2969 2966 2962 2957 2954 2951 2948 2943 2940 2936 2931 2927